Regional Weather Roundup
Issued by NWS Charleston, SC

Current Version | Previous Version | Graphics & Text | Print | Product List | Glossary Off
Versions: 1 2 3 4 5 6 7 8 9 10 11 12 13 14 15 16 17 18 19 20 21 22 23 24 25 26 27 28 29 30 31 32 33 34 35 36 37 38 39 40 41 42 43 44 45 46 47 48 49 50
000 ASUS42 KCHS 200327 RWRCHS Regional Weather Roundup National Weather Service Charleston SC 1100 PM EDT THU APR 19 2018 NOTE: "fair" indicates few or no clouds below 12,000 feet with no significant weather and/or obstructions to visibility. Not all stations are quality controlled. Use data with caution, especially dewpoint observations. SCZ027-030-031-034>040-042>050-200400- ...Southeast South Carolina... CITY SKY/WX TMP DP RH WIND PRES REMARKS N Charleston FAIR 66 40 38 N14G24 30.07R Waterfront Prk N/A 71 43 36 N13G20 29.89R Mount Pleasant FAIR 64 41 42 N10G17 30.08R Johns Island FAIR 68 41 37 N13G20 30.07R Pinopolis N/A 64 46 52 N18G25 29.98R Moncks Corner FAIR 61 34 36 N8G17 30.11R Summerville FAIR 63 37 39 N15G21 30.11R Beaufort MCAS FAIR 68 42 38 NW7 30.06R Beaufort Arpt FAIR 66 43 42 N8 30.06R Hilton Head Is FAIR 70 43 37 N8G16 30.07R Walterboro FAIR 63 41 45 N7 30.10R Allendale FAIR 63 39 42 N10 30.09R ...Southern Midlands and Pee Dee... CITY SKY/WX TMP DP RH WIND PRES REMARKS Georgetown FAIR 59 34 38 N13G21 30.11R Kingstree FAIR 55 30 38 N7 30.14R Orangeburg FAIR 60 35 39 N13G18 30.12R Barnwell FAIR 61 34 36 N10G20 30.12R Aiken FAIR 55 32 41 N13G23 30.17R Manning FAIR 54 28 37 NE13G24 30.14R Columbia FAIR 59 34 39 N8 30.14R Sumter FAIR 56 30 37 N10 30.12R Florence FAIR 56 32 40 N10 30.15R Myrtle Beach FAIR 61 35 37 N20G28 30.11R N Myrtle Beach FAIR 59 31 34 N17G30 30.10R $$ GAZ063-065-086>088-099>101-113>116-118-119-134>141-150-200400- ...Southeast Georgia... CITY SKY/WX TMP DP RH WIND PRES REMARKS Savannah Arpt FAIR 68 42 38 N13 30.07R Hunter AAF FAIR 71 42 35 N13 30.04R Fort Stewart FAIR 68 43 40 NW9 30.05R Statesboro FAIR 62 40 44 N6 30.09R Sylvania FAIR 61 45 55 N7 30.10R Claxton FAIR 67 43 41 NW6 30.10R ...CSRA, Central and far Southeast Georgia... CITY SKY/WX TMP DP RH WIND PRES REMARKS Thomson FAIR 55 40 56 NE5 30.19R Augusta-Bush FAIR 60 40 47 N10 30.12R Augusta-Daniel FAIR 62 38 40 N8 30.13R Swainsboro FAIR 61 41 48 NW8 30.12S Vidalia FAIR 64 43 45 N12 30.11R Eastman FAIR 62 27 26 N8 30.15R Hazlehurst FAIR 66 40 39 N12 30.10R Alma FAIR 68 45 43 N8 30.07R Waycross FAIR 68 44 41 N9 30.07R Jesup MOCLDY 72 48 43 N6 30.06R Baxley FAIR 64 43 45 N7 30.09R Brunswick FAIR 70 55 60 NW7 30.05R Saint Simons FAIR 73 59 61 NW3 30.03R $$ SCZ027-028-034-036>038-045-046-048>050-GAZ119-141-200400- ...Lake and Supplemental Coastal Observations... STATION/POSITION TIME TEMP WIND PRES WAVE SWELL AIR SEA DIR/SP/G HT/PER HT/PER/DIR (UTC) (F) (DEG/KT/KT) (MB) (FT/S) (FT/S/D) Winyah Bay 0245 65 360/ 10 1018.0R Lake Murray 0220 58 10/ 4/ 9 1019.6R ACE Basin NERRS 0245 69 350/ 2 N/A Fort Pulaski 0300 70 66 350/ 12/ 16 1018.0 Sapelo Island 0300 71 330/ 7 1017.0 $$ ANZ835-935-AMZ111-154-330-350-352-354-370-450-454-472-200400- ...C-MAN and Buoy Observations... STATION/POSITION TIME TEMP WIND PRES WAVE SWELL AIR SEA DIR/SP/G HT/PER HT/PER/DIR (UTC) (F) (DEG/KT/KT) (MB) (FT/S) (FT/S/D) Buoy 41004 0310 69 68 20/ 16/ 21 1017.1 Buoy 41008 0250 71 66 260/ 4/ 6 1016.5R 2/ 5 2/170/ 5 Folly Beach CMAN 0300 68 360/ 16/ 18 1018.3R Capers Nearshore 0308 67 63 20/ 17/ 25 1017.9R Fripp Nearshore 0308 68 64 350/ 10/ 16 1017.0R STATION/POSITION TIME TEMP WIND PRES WAVE SWELL AIR SEA DIR/SP/G HT/PER HT/PER/DIR (UTC) (F) (DEG/KT/KT) (MB) (FT/S) (FT/S/D) 5E St. Marys GA 0300 67 N/A 2/ 9 Frying Pan Buoy 0310 63 66 360/ 25/ 29 1018.1 Buoy 41025 0310 58 67 20/ 25/ 33 1018.6 Cape Lookout NC 0300 350/ 19/ 21 1019.0R Buoy 41002 0310 72 71 240/ 16/ 19 1016.1 Buoy 41010 0310 74 73 170/ 12/ 14 1018.4 St Augustine FL 0300 71 68 240/ 7/ 10 1018.4R $$

USA.gov is the U.S. government's official web portal to all federal, state and local government web resources and services.